Weather History for Massena, NY

Change the Weather History Date:

Saturday, September 7, 2013

  Actual Average Record
Temperature  
Mean Temperature 64 °F 62 °F  
Max Temperature 71 °F 73 °F 92 °F (2007)
Min Temperature 57 °F 50 °F 36 °F (1982)
Degree Days  
Heating Degree Days 1 5  
Month to date heating degree days 31 28  
Since 1 July heating degree days 87 103  
Cooling Degree Days 0 1  
Month to date cooling degree days 13 12  
Year to date cooling degree days 400 348  
Growing Degree Days 14 (Base 50)    
Moisture  
Dew Point 55 °F    
Average Humidity 79    
Maximum Humidity 97    
Minimum Humidity 61    
Precipitation  
Precipitation 0.03 in 0.11 in 0.61 in (1953)
Month to date precipitation 0.70 0.81  
Year to date precipitation 23.82 23.35  
Sea Level Pressure  
Sea Level Pressure 29.92 in    
Wind  
Wind Speed 11 mph (SW)    
Max Wind Speed 21 mph    
Max Gust Speed 26 mph    
Visibility 10 miles    
Events Rain    
T = Trace of Precipitation, MM = Missing Value Source: NWS Daily Summary

Daily Weather History Graph

Daily Weather History Graph

Search for Another Location

Airport:

Trip Planner

Search our weather history database for the weather conditions in past years. The results will help you decide how hot, cold, wet, or windy it might be!

Date:

Astronomy

Sep. 07, 2013 Rise Set
Actual Time 6:28 AM EDT 7:24 PM EDT
Civil Twilight 5:58 AM EDT 7:54 PM EDT
Nautical Twilight 5:23 AM EDT 8:30 PM EDT
Astronomical Twilight 4:45 AM EDT 9:07 PM EDT
Moon 8:48 AM EDT (9/7) 8:12 PM EDT (9/7)
Length of Visible Light 13h 55m
Length of Day
12h 56m
Waxing Crescent, 5% of the Moon is Illuminated
Sep 7
Waxing Crescent
Sep 12
First Quarter
Sep 19
Full
Sep 26
Last Quarter
Oct 4
New

Hourly Weather History & Observations

Time (EDT) Temp. Dew Point Humidity Pressure Visibility Wind Dir Wind Speed Gust Speed Precip Events Conditions
12:53 AM 57.0 °F 48.9 °F 74% 30.04 in 10.0 mi SW 11.5 mph - N/A   Mostly Cloudy
1:53 AM 57.0 °F 50.0 °F 77% 30.04 in 10.0 mi SSW 9.2 mph - N/A   Partly Cloudy
2:53 AM 57.9 °F 50.0 °F 75% 30.01 in 10.0 mi SSW 8.1 mph - N/A   Clear
3:53 AM 59.0 °F 50.0 °F 72% 30.01 in 10.0 mi SSW 9.2 mph - N/A   Scattered Clouds
4:53 AM 59.0 °F 50.0 °F 72% 30.00 in 10.0 mi SW 9.2 mph - N/A   Mostly Cloudy
5:53 AM 59.0 °F 48.9 °F 69% 29.99 in 10.0 mi SW 10.4 mph - N/A   Partly Cloudy
6:53 AM 59.0 °F 50.0 °F 72% 29.98 in 10.0 mi SW 11.5 mph - N/A   Partly Cloudy
7:53 AM 61.0 °F 52.0 °F 72% 29.97 in 10.0 mi SSW 12.7 mph - N/A   Clear
8:53 AM 63.0 °F 54.0 °F 72% 29.96 in 10.0 mi SSW 13.8 mph 24.2 mph N/A   Clear
9:53 AM 64.0 °F 54.0 °F 70% 29.96 in 10.0 mi SW 11.5 mph 21.9 mph N/A   Partly Cloudy
10:53 AM 64.9 °F 55.9 °F 73% 29.95 in 10.0 mi SW 10.4 mph 19.6 mph N/A   Clear
11:53 AM 68.0 °F 55.9 °F 65% 29.93 in 10.0 mi SW 18.4 mph 24.2 mph N/A   Partly Cloudy
12:53 PM 71.1 °F 57.0 °F 61% 29.91 in 10.0 mi SW 16.1 mph 23.0 mph N/A   Clear
1:53 PM 64.9 °F 59.0 °F 81% 29.90 in 10.0 mi SSW 12.7 mph - 0.00 in Rain Light Rain
2:53 PM 66.0 °F 59.0 °F 78% 29.90 in 10.0 mi SW 15.0 mph 20.7 mph 0.00 in   Overcast
3:53 PM 66.0 °F 60.1 °F 81% 29.88 in 10.0 mi SSW 15.0 mph - N/A   Overcast
4:49 PM 64.4 °F 57.2 °F 77% 29.87 in 10.0 mi SW 12.7 mph - N/A   Overcast
4:53 PM 64.9 °F 57.9 °F 78% 29.88 in 10.0 mi SW 11.5 mph - N/A   Overcast
5:53 PM 63.0 °F 59.0 °F 87% 29.87 in 10.0 mi SW 6.9 mph - N/A   Overcast
6:53 PM 63.0 °F 57.0 °F 81% 29.87 in 10.0 mi SW 13.8 mph - N/A   Overcast
7:53 PM 63.0 °F 55.9 °F 78% 29.87 in 10.0 mi SW 8.1 mph - N/A   Overcast
8:53 PM 61.0 °F 55.9 °F 83% 29.86 in 8.0 mi SW 5.8 mph - 0.00 in Rain Light Rain
9:20 PM 60.8 °F 57.2 °F 88% 29.86 in 10.0 mi SW 6.9 mph - 0.02 in Rain Light Rain
9:53 PM 60.1 °F 57.0 °F 90% 29.86 in 8.0 mi SW 8.1 mph - 0.03 in Rain Light Rain
10:13 PM 60.8 °F 57.2 °F 88% 29.86 in 10.0 mi SW 8.1 mph - 0.00 in   Overcast
10:53 PM 60.1 °F 57.9 °F 93% 29.85 in 10.0 mi SW 8.1 mph - 0.00 in   Overcast
11:53 PM 60.1 °F 59.0 °F 96% 29.84 in 10.0 mi SW 10.4 mph - N/A   Overcast